Location: *
(57.8420°S, 159.8600°W)
Time: 03:33:30
(UTC+00:00)

Cosmos 1932 - Pass Details

Date: 18 May 2021
Orbit: 940 x 990 km, 65.0° (Epoch: 20 June)

Event Time Altitude Azimuth Distance (km) Brightness Sun altitude
Rises 05:28:30 0° 236° (WSW) 3,697 8.4 -23.5°
Reaches altitude 10° 05:31:06 10° 233° (SW) 2,754 7.6 -23.8°
Maximum altitude 05:37:34 70° 149° (SSE) 1,058 4.5 -24.7°
Enters shadow 05:38:53 56° 91° (E) 1,180 4.5 -24.8°
